Regional Weather Roundup
Issued by NWS

Home | Current Version | Previous Version | Text Only | Print | Product List | Glossary On
Versions: 1 2 3 4 5 6 7 8 9 10 11 12 13 14 15 16 17 18 19 20 21 22 23 24 25 26 27 28
000
ASUS45 KCYS 251510
RWRWY

WYOMING REGIONAL WEATHER ROUNDUP
NATIONAL WEATHER SERVICE CHEYENNE WY
900 AM MDT SAT OCT 25 2014

NOTE:  "FAIR" INDICATES FEW OR NO CLOUDS BELOW 12,000 FEET
WITH NO SIGNIFICANT WEATHER AND/OR OBSTRUCTIONS TO VISIBILITY.

WYZ001-251600-
YELLOWSTONE NATIONAL PARK

CITY           SKY/WX    TMP DP  RH WIND       PRES   REMARKS
LK YELLOWSTONE   N/A     30  26  85 CALM      30.23
W YELLOWSTONE  NOT AVBL

$$
WYZ002>013-054>058-071-098>099-251600-
NORTHERN WYOMING

CITY           SKY/WX    TMP DP  RH WIND       PRES   REMARKS
JACKSON        SUNNY     30  27  86 CALM      30.21S
CODY           SUNNY     45  30  57 CALM      30.08
GREYBULL       SUNNY     36  29  75 CALM      30.09R
WORLAND        SUNNY     38  31  76 S5        30.09S WCI  34
SHERIDAN       MOSUNNY   39  33  79 CALM      30.06F
BUFFALO        MOSUNNY   46  30  53 SE7       30.10S
GILLETTE       SUNNY     48  33  56 S13       30.12S
HULETT         FAIR      45  32  61 CALM      30.14
NEWCASTLE      FAIR      45  32  61 S7        30.18

$$
WYZ014>020-022>026-101>103-251600-
CENTRAL WYOMING

CITY           SKY/WX    TMP DP  RH WIND       PRES   REMARKS
BIG PINEY      MOSUNNY   31  21  66 CALM      30.27S
PINEDALE       MOSUNNY   30  25  80 W5        30.27  WCI  25
DUBOIS         FAIR      39  21  48 W7        30.21S WCI  34
LANDER         MOSUNNY   43  25  49 NW5       30.15R
RIVERTON       MOSUNNY   43  26  51 N6        30.16R
CASPER         SUNNY     58  28  32 SW7       30.17S
DOUGLAS        SUNNY     45  26  47 CALM      30.18F

$$
WYZ021-027>030-104>119-251600-
SOUTHERN WYOMING

CITY           SKY/WX    TMP DP  RH WIND       PRES   REMARKS
EVANSTON       SUNNY     50  21  32 S8        30.23S
KEMMERER       MOSUNNY   36  27  69 N10       30.26R WCI  28
FORT BRIDGER   FAIR      44  23  43 CALM      30.27S
ROCK SPRINGS   MOSUNNY   45  28  51 SE3       30.25R
DIXON          FAIR      39  32  77 E3        30.32S
RAWLINS        MOSUNNY   51  26  37 E6        30.29R
SARATOGA       FAIR      50  23  34 SE10G17   30.32S
LARAMIE        SUNNY     47  21  35 W5        30.33R
CHEYENNE       SUNNY     51  25  36 SW7       30.27R
TORRINGTON     SUNNY     43  33  68 CALM      30.18S
PINE BLUFFS    FAIR      46  32  57 S5        30.23R

$$



USA.gov is the U.S. government's official web portal to all federal, state and local government web resources and services.